"Pseudo-MPEC" for X84004

Created 2024 Nov 15 8:31:06 UT using Find_Orb

Click here for an explanation of pseudo-MPECs

 
 Astrometry: 
     X84004 * C2024 10 25.64624902 09 41.20 +16 51 25.3    ~AQ9H 21.7 RVNEOCPD29
     X84004   C2024 10 25.66039002 09 41.66 +16 51 17.1    ~AQ9H 21.4 RVNEOCPD29
     X84004   C2024 10 25.67589802 09 42.04 +16 51 08.4    ~AQ9H 21.4 RVNEOCPD29

Station data:
(D29) Purple Mountain Observatory, XuYi Station  (N32.734363 E118.463900)
   China.  Observers H. B. Zhao, B. Li, G. Zhaori, R. Q. Hong, L. F. Hu.
   Measurers H. B. Zhao, B. Li. H. Lu, G. Zhaori. 1.04-m f/1.8 Schmidt + CCD.

Orbital elements:  X84004
   Perihelion 2024 Dec 16.57750 +/- 44.1 TT = 13:51:35 (JD 2460661.07750)
Epoch 2024 Oct 26.0 TT = JDT 2460609.5   Earth MOID: 0.1607   Ma: 0.0713
M 345.12652188 +/- 17               (J2000 ecliptic)             AutoNEOCP
n   0.28837146 +/- 0.256            Peri.  216.52190 +/- 60
a   2.26900014 +/- 1.34             Node   224.21175 +/- 43
e   0.4977786 +/- 0.247             Incl.    4.11207 +/- 2.2
P   3.41784                H 23.74  G  0.15   U 11.8  SR
q 1.13954027 +/- 0.321    Q 3.39846001 +/- 63.5
From 3 observations 2024 Oct. 25 (42.7 min); mean residual 0".29
Residuals in arcseconds: 
241025 D29  .30-  .06+    241025 D29  .57+  .12-    241025 D29  .27-  .06+    

Ephemerides (geocentric):
Date (UTC) HH   RA             Dec           delta  r     elong  mag " sig PA
---- --------  ------------   ------------  ------ ------ -----  --- --------
2024 11 15 09  02 30 17.625   +12 01 00.38  .20896 1.1927 165.7 21.4  59d  79
2024 11 15 10  02 30 21.396   +12 00 16.68  .20886 1.1925 165.7 21.4  59d  79
2024 11 15 11  02 30 25.174   +11 59 32.96  .20875 1.1924 165.6 21.4  59d  79
2024 11 15 12  02 30 28.959   +11 58 49.21  .20865 1.1922 165.6 21.4  59d  79
2024 11 15 13  02 30 32.750   +11 58 05.44  .20854 1.1921 165.6 21.4  59d  79
2024 11 15 14  02 30 36.548   +11 57 21.66  .20844 1.1920 165.5 21.4  60d  79
2024 11 15 15  02 30 40.352   +11 56 37.85  .20834 1.1918 165.5 21.4  60d  79
2024 11 15 16  02 30 44.163   +11 55 54.03  .20823 1.1917 165.5 21.4  60d  79
2024 11 15 17  02 30 47.982   +11 55 10.18  .20813 1.1916 165.4 21.4  60d  79
2024 11 15 18  02 30 51.806   +11 54 26.31  .20803 1.1914 165.4 21.4  60d  79
2024 11 15 19  02 30 55.638   +11 53 42.43  .20792 1.1913 165.4 21.4  60d  79
2024 11 15 20  02 30 59.476   +11 52 58.52  .20782 1.1912 165.3 21.4  60d  79
2024 11 15 21  02 31 03.321   +11 52 14.59  .20772 1.1910 165.3 21.4  60d  79
2024 11 15 22  02 31 07.173   +11 51 30.65  .20762 1.1909 165.3 21.4  60d  79
2024 11 15 23  02 31 11.032   +11 50 46.68  .20752 1.1908 165.2 21.4  60d  79
2024 11 16 00  02 31 14.897   +11 50 02.70  .20741 1.1906 165.2 21.4  60d  79
2024 11 16 01  02 31 18.769   +11 49 18.70  .20731 1.1905 165.2 21.4  60d  79
2024 11 16 02  02 31 22.648   +11 48 34.68  .20721 1.1904 165.1 21.4  60d  79
2024 11 16 03  02 31 26.534   +11 47 50.63  .20711 1.1902 165.1 21.4  60d  79
2024 11 16 04  02 31 30.426   +11 47 06.57  .20701 1.1901 165.1 21.4  60d  79
2024 11 16 05  02 31 34.326   +11 46 22.50  .20691 1.1900 165.0 21.4  60d  79
2024 11 16 06  02 31 38.232   +11 45 38.40  .20681 1.1898 165.0 21.4  60d  79
2024 11 16 07  02 31 42.145   +11 44 54.28  .20670 1.1897 165.0 21.4  60d  79
2024 11 16 08  02 31 46.064   +11 44 10.15  .20660 1.1896 164.9 21.4  60d  79
2024 11 16 09  02 31 49.991   +11 43 25.99  .20650 1.1894 164.9 21.4  60d  79
2024 11 16 10  02 31 53.924   +11 42 41.82  .20640 1.1893 164.9 21.4  60d  79
2024 11 16 11  02 31 57.865   +11 41 57.63  .20630 1.1892 164.8 21.4  60d  79
2024 11 16 12  02 32 01.812   +11 41 13.43  .20620 1.1890 164.8 21.4  60d  79
2024 11 16 13  02 32 05.766   +11 40 29.20  .20610 1.1889 164.8 21.4  60d  79
2024 11 16 14  02 32 09.727   +11 39 44.96  .20600 1.1888 164.7 21.4  60d  79
2024 11 16 15  02 32 13.695   +11 39 00.70  .20591 1.1886 164.7 21.4  60d  79
2024 11 16 16  02 32 17.669   +11 38 16.42  .20581 1.1885 164.7 21.4  60d  79
2024 11 16 17  02 32 21.651   +11 37 32.13  .20571 1.1884 164.6 21.4  60d  79
2024 11 16 18  02 32 25.639   +11 36 47.81  .20561 1.1882 164.6 21.4  60d  79
2024 11 16 19  02 32 29.634   +11 36 03.48  .20551 1.1881 164.6 21.4  60d  79
2024 11 16 20  02 32 33.636   +11 35 19.14  .20541 1.1880 164.5 21.4  60d  79
2024 11 16 21  02 32 37.645   +11 34 34.77  .20531 1.1878 164.5 21.4  61d  79
2024 11 16 22  02 32 41.661   +11 33 50.39  .20522 1.1877 164.5 21.4  61d  79
2024 11 16 23  02 32 45.684   +11 33 05.99  .20512 1.1876 164.4 21.4  61d  79
2024 11 17 00  02 32 49.714   +11 32 21.58  .20502 1.1874 164.4 21.4  61d  79
2024 11 17 01  02 32 53.751   +11 31 37.15  .20492 1.1873 164.4 21.4  61d  79
2024 11 17 02  02 32 57.794   +11 30 52.70  .20482 1.1872 164.3 21.4  61d  79
2024 11 17 03  02 33 01.845   +11 30 08.24  .20473 1.1871 164.3 21.4  61d  79
2024 11 17 04  02 33 05.902   +11 29 23.76  .20463 1.1869 164.3 21.4  61d  79
2024 11 17 05  02 33 09.967   +11 28 39.26  .20453 1.1868 164.2 21.4  61d  79
2024 11 17 06  02 33 14.038   +11 27 54.75  .20444 1.1867 164.2 21.4  61d  79
2024 11 17 07  02 33 18.117   +11 27 10.22  .20434 1.1865 164.2 21.4  61d  79
2024 11 17 08  02 33 22.202   +11 26 25.68  .20424 1.1864 164.1 21.4  61d  79